This is the latest recevied weather packets stored in our database for station/object EA1EXV-11. If no packets are shown the sender has not sent any weather packets the latest 10 day(s).
| Time | Temp. | Humidity | Pressure | Rain* | Wind** | Luminosity | Snow |
|---|---|---|---|---|---|---|---|
| 1778144734 | 17.22° C | 83% | 1012.1 hPa | - | - | - | - |
| 1778143834 | 16.11° C | 84% | 1012.4 hPa | - | - | - | - |
| 1778142934 | 13.89° C | 85% | 1012.4 hPa | - | - | - | - |
| 1778142034 | 12.22° C | 86% | 1012.4 hPa | - | - | - | - |
| 1778141134 | 10.56° C | 85% | 1012.4 hPa | - | - | - | - |
| 1778140233 | 10° C | 86% | 1012.8 hPa | - | - | - | - |
| 1778139333 | 9.44° C | 86% | 1012.8 hPa | - | - | - | - |
| 1778138433 | 8.89° C | 85% | 1012.7 hPa | - | - | - | - |
| 1778137533 | 8.33° C | 85% | 1012.7 hPa | - | - | - | - |
| 1778136635 | 7.78° C | 85% | 1012.7 hPa | - | - | - | - |
| 1778135733 | 7.78° C | 85% | 1012.8 hPa | - | - | - | - |
| 1778134833 | 7.78° C | 85% | 1012.9 hPa | - | - | - | - |
| 1778133933 | 7.78° C | 85% | 1012.9 hPa | - | - | - | - |
| 1778133033 | 7.22° C | 85% | 1012.8 hPa | - | - | - | - |
| 1778132133 | 7.22° C | 85% | 1013 hPa | - | - | - | - |
| 1778131232 | 7.22° C | 85% | 1012.9 hPa | - | - | - | - |
| 1778130332 | 7.22° C | 85% | 1013 hPa | - | - | - | - |
| 1778129432 | 7.22° C | 85% | 1013.1 hPa | - | - | - | - |
| 1778128532 | 7.78° C | 84% | 1013.1 hPa | - | - | - | - |
| 1778127632 | 7.78° C | 84% | 1013.3 hPa | - | - | - | - |
| 1778126732 | 7.22° C | 84% | 1013.4 hPa | - | - | - | - |
| 1778125832 | 7.22° C | 84% | 1013.5 hPa | - | - | - | - |
| 1778124932 | 7.22° C | 84% | 1013.5 hPa | - | - | - | - |
| 1778124032 | 7.22° C | 84% | 1013.5 hPa | - | - | - | - |
| 1778123132 | 7.22° C | 84% | 1013.5 hPa | - | - | - | - |
* Rain since midnight (hover to see other rain measurements)
** Current wind speed in m/s (hover to see current wind gust speed)